Wetbulb
40.33 34.68 32.03 35.86 36.90 38.55 37.79 35.76 34.26 37.58 41.27 38.68 37.79 38.92 41.09 43.36 43.26 42.91 44.13 46.25 47.63 49.96 53.42 55.78 57.24 58.51 58.42 60.35 60.87 62.15 63.61 67.54 70.02 69.51 69.55 69.53 69.73 69.92 67.90 67.93 68.34 68.26 70.12 69.56
35.76 31.70 38.55 40.91 39.89 37.91 36.49 33.55 33.08 37.31 40.88 39.35 37.89 37.98 41.19 41.90 41.95 42.68 43.41 44.66 45.78 48.04 50.71 52.98 55.39 55.46 57.17 57.56 61.56 61.79 63.63 67.71 69.99 70.13 70.58 68.02 68.62 64.59 67.33 67.05 67.12 67.07 69.21 69.83
32.56 37.03 41.99 40.23 37.65 36.71 35.47 34.08 35.17 35.19 39.35 39.12 37.08 35.58 38.09 41.54 42.65 43.71 44.22 44.64 45.83 46.85 48.77 51.05 53.17 54.77 55.56 56.71 60.08 62.04 63.71 64.46 68.90 69.58 67.19 62.70 62.13 62.03 62.19 62.82 63.32 64.89 68.39 70.32
35.48 39.81 39.82 38.06 37.63 38.88 32.80 40.11 39.18 37.85 34.16 27.25 36.52 26.46 35.35 38.81 39.65 41.38 42.65 42.16 43.20 45.19 47.29 48.82 51.18 52.29 52.75 56.46 60.50 63.08 63.73 63.85 65.93 64.84 65.53 62.94 62.25 60.26 60.43 60.15 63.89 65.39 68.85 70.21
34.52 36.69 36.19 35.65 38.51 40.62 36.20 40.69 38.14 37.40 33.43 29.27 32.00 26.92 33.59 38.10 37.50 40.13 42.28 43.77 44.71 44.71 45.34 46.91 49.31 51.63 53.82 55.91 59.73 61.95 62.98 63.24 64.40 64.10 63.31 63.01 58.91 60.33 60.38 61.59 62.94 65.48 67.04 69.42
37.06 40.64 40.10 39.37 41.71 41.10 42.01 36.84 35.00 33.46 30.38 23.11 29.93 28.92 30.58 33.43 36.78 40.21 43.20 44.70 46.07 46.72 47.36 48.31 48.65 50.27 52.15 53.89 58.31 59.32 61.37 61.36 61.48 62.21 62.01 61.50 60.64 60.81 61.44 63.10 64.46 65.43 65.99 67.94
35.55 36.04 40.91 43.17 36.74 39.11 36.37 28.92 21.93 20.43 20.44 21.63 32.52 29.52 31.71 37.59 40.43 41.59 42.99 44.21 45.64 45.89 46.64 47.85 48.88 49.65 49.69 51.03 55.44 57.95 61.10 61.77 62.06 61.99 62.22 62.86 62.25 62.15 62.53 64.37 65.59 65.02 64.61 65.00
25.83 24.76 36.26 43.15 37.11 32.84 31.60 30.66 22.27 18.31 20.76 23.71 33.12 26.77 31.05 40.74 43.52 44.32 44.96 44.41 45.42 45.16 46.04 48.18 49.35 50.80 51.75 51.60 51.75 55.80 56.74 59.86 60.83 61.79 61.69 63.48 63.46 63.92 63.67 65.48 67.12 67.22 67.08 66.59
28.41 29.92 40.32 41.41 40.31 37.26 31.75 28.36 33.44 26.92 27.83 24.41 27.91 32.59 37.16 41.25 41.58 42.55 42.52 43.98 43.56 44.81 45.62 47.26 49.41 50.96 51.63 51.93 52.70 51.93 54.85 58.13 58.99 61.41 62.54 62.35 63.63 63.33 64.35 66.36 67.13 66.58 65.48 66.48
34.46 27.86 38.18 40.22 40.41 39.12 34.65 35.97 25.17 25.28 20.63 20.07 25.46 28.12 28.64 36.47 38.07 40.41 40.65 41.11 42.79 44.64 45.59 47.14 48.62 50.32 50.70 53.63 53.25 51.89 52.96 55.10 58.37 59.98 62.59 64.52 63.87 65.06 66.55 66.97 66.43 66.07 66.20 66.57
35.36 31.08 32.21 36.40 33.32 31.01 31.64 30.07 32.14 30.98 30.32 23.87 23.53 26.90 37.15 37.80 38.59 38.39 39.60 41.46 42.23 43.52 45.22 46.44 48.49 50.17 50.53 57.00 59.47 55.88 54.56 56.17 60.52 62.61 63.17 65.00 64.93 66.86 66.92 66.77 66.30 66.48 66.48 66.52
37.21 32.17 27.92 31.12 37.94 39.63 36.41 32.80 31.33 21.91 21.22 30.29 28.69 26.00 40.82 40.32 39.26 39.76 40.04 42.46 44.09 45.03 46.06 47.43 48.43 47.33 50.15 54.44 58.99 58.79 57.96 59.02 61.15 63.63 64.90 65.38 67.20 67.80 66.59 66.18 66.41 67.04 66.86 67.47
36.40 29.22 25.89 26.69 31.16 34.56 32.40 35.38 34.36 33.16 31.28 26.35 24.95 26.33 39.41 41.28 40.78 41.65 40.11 42.26 44.40 45.80 46.95 48.16 46.65 47.56 50.11 51.90 56.05 62.35 61.77 62.38 64.25 65.73 66.15 66.45 67.98 68.48 66.92 67.15 67.91 67.89 67.58 67.20
42.36 32.55 29.18 25.38 28.05 31.48 30.88 34.35 35.92 32.51 28.06 27.65 28.55 30.68 35.86 38.15 40.05 40.71 41.15 43.51 44.40 45.03 46.80 47.88 48.10 48.44 49.84 50.70 54.36 62.55 65.08 66.17 67.14 67.55 67.13 66.16 66.49 67.22 67.01 67.26 67.17 66.57 66.68 66.29
36.54 28.49 32.41 33.81 35.44 36.01 34.97 34.86 35.46 33.16 32.63 28.28 31.02 32.14 36.13 37.72 39.61 41.21 42.44 44.08 45.02 45.66 47.07 48.34 48.12 49.13 49.59 50.62 54.67 63.64 65.25 66.82 67.38 66.59 65.55 65.35 65.33 65.49 64.55 64.48 64.83 64.90 64.81 64.03
35.66 29.72 34.48 31.42 35.04 35.61 33.43 35.61 36.21 35.75 35.54 34.42 35.05 34.22 41.15 40.96 41.58 41.57 42.86 44.70 45.48 46.28 47.41 49.31 52.96 54.05 54.67 53.84 55.31 62.88 65.06 65.88 66.61 65.57 65.23 64.95 65.01 65.25 64.36 62.48 62.93 62.60 62.07 62.59
31.95 30.93 31.72 27.76 33.67 32.97 28.38 34.90 35.40 35.52 37.04 35.09 30.84 35.93 40.24 39.42 40.72 41.37 42.58 45.69 45.93 47.41 49.08 51.03 54.01 54.75 53.57 54.98 56.93 56.69 65.08 66.23 65.61 65.28 65.00 64.84 64.87 63.76 63.07 62.51 61.01 60.46 60.71 60.61
33.64 32.41 34.06 28.82 29.29 22.44 33.42 40.37 38.90 35.87 37.06 38.46 37.37 38.76 39.12 39.08 40.82 42.11 43.85 44.44 44.44 45.51 47.41 48.87 51.87 55.54 55.00 55.41 56.50 58.58 62.73 65.35 65.30 64.40 64.32 64.52 63.80 62.78 62.05 60.90 59.98 60.01 61.84 60.92
38.75 34.47 31.77 28.09 20.88 29.68 34.50 37.54 36.29 33.91 33.44 39.97 38.09 38.59 39.28 40.57 40.62 40.83 45.40 45.14 44.12 45.27 47.12 48.93 52.23 57.15 57.23 57.34 58.29 58.88 57.74 64.34 64.24 63.40 63.29 63.15 62.72 61.35 60.66 60.12 60.12 61.73 61.73 59.98
37.88 34.83 29.65 30.14 25.62 21.48 30.76 39.54 41.38 40.22 28.90 40.54 38.81 38.27 38.54 40.24 34.41 37.27 42.37 44.12 44.43 45.96 47.05 48.24 50.60 56.67 56.95 57.77 58.80 58.47 59.25 62.94 62.57 62.47 62.07 62.32 62.05 60.85 60.51 61.04 61.30 61.47 61.32 59.40
31.66 33.94 30.52 29.73 28.01 31.18 37.88 40.52 41.66 27.36 29.77 39.04 40.11 40.20 41.04 38.84 40.06 43.05 44.78 44.39 45.73 45.98 47.07 49.39 50.55 56.20 57.56 58.19 57.77 56.63 59.62 61.20 61.95 62.35 61.88 61.39 61.35 60.90 61.77 61.67 61.11 60.62 60.46 59.42
29.98 29.74 30.37 31.50 27.90 23.32 40.83 39.81 34.72 37.90 41.32 41.92 41.28 40.82 40.35 41.60 43.63 42.89 43.26 43.89 44.76 45.47 48.13 49.56 49.92 56.68 59.16 58.03 57.43 56.11 59.12 60.88 61.97 62.06 61.90 60.85 61.86 61.84 61.58 60.79 59.77 60.56 59.50 58.08
25.16 33.80 32.17 31.73 30.80 38.40 42.59 41.61 41.55 43.81 41.62 40.74 39.62 40.47 41.38 41.91 41.54 42.82 43.50 44.47 45.47 46.99 48.77 50.48 53.01 57.35 59.73 60.21 61.77 59.32 59.38 61.62 61.38 60.75 60.25 61.35 61.79 60.68 60.48 59.84 59.64 59.63 58.76 57.90
34.41 37.44 33.85 36.01 36.79 40.02 41.51 41.67 40.91 40.36 40.14 42.18 42.23 42.47 42.20 40.91 42.52 43.44 44.89 46.37 48.41 50.77 50.92 51.28 53.91 57.96 58.42 61.18 62.05 59.98 61.25 61.92 60.95 60.48 59.54 60.74 59.99 59.10 59.61 60.39 60.81 60.10 58.56 57.58
34.66 36.94 37.11 37.37 39.88 41.23 40.41 41.18 40.48 40.13 41.92 42.03 42.89 42.97 42.90 43.41 43.50 44.93 46.23 47.10 49.35 51.71 53.08 53.05 56.25 59.21 57.73 60.12 61.00 61.78 62.01 61.50 60.45 59.82 59.76 59.84 59.70 58.13 55.73 51.99 55.37 59.92 59.25 57.99
38.66 39.28 36.50 34.69 40.86 40.10 39.67 39.62 41.51 40.80 41.10 42.63 42.08 42.41 44.06 45.07 45.57 46.52 47.01 48.36 50.61 52.23 56.24 57.31 59.03 58.01 59.15 59.33 61.07 61.68 62.20 61.72 60.40 59.11 59.16 59.23 58.07 56.29 54.92 54.14 51.44 41.07 43.46 45.27
MSLP
1008.72 1009.57 1010.09 1010.03 1010.25 1010.10 1010.16 1009.91 1009.55 1008.60 1007.86 1007.36 1006.59 1005.11 1004.61 1004.32 1003.87 1003.61 1003.04 1002.56 1001.88 1001.10 999.81 999.63 999.53 999.27 999.15 1000.01 1000.37 1000.57 1000.41 1000.66 1000.84 1001.47 1002.09 1002.59 1002.73 1002.87 1003.29 1003.30 1003.62 1004.00 1004.35 1004.90
1009.63 1009.53 1009.44 1009.39 1009.32 1009.56 1009.66 1009.70 1009.62 1008.88 1008.50 1008.17 1007.45 1005.02 1004.62 1004.52 1004.08 1003.76 1003.41 1002.80 1002.09 1001.13 1000.19 999.21 999.26 999.29 999.08 999.05 999.51 1000.00 1000.02 999.97 1000.13 1000.13 1000.53 1001.16 1001.66 1002.28 1002.36 1002.78 1002.97 1003.27 1003.85 1004.10
1009.90 1009.42 1008.95 1009.00 1009.07 1009.33 1009.58 1009.86 1009.81 1009.70 1009.13 1008.71 1007.98 1005.65 1004.82 1004.23 1003.98 1003.49 1003.31 1002.95 1002.27 1001.75 1000.86 999.96 999.24 998.83 998.98 998.63 998.91 999.19 999.62 999.62 999.48 999.93 1000.65 1001.42 1002.07 1002.18 1002.58 1002.84 1002.94 1002.57 1002.84 1003.20
1009.49 1008.78 1008.90 1008.91 1009.17 1009.41 1009.86 1009.97 1010.05 1009.88 1009.96 1009.87 1009.08 1006.64 1005.48 1005.22 1004.14 1003.83 1003.27 1003.04 1002.65 1001.96 1001.09 1000.32 999.70 999.15 998.40 998.08 998.18 998.06 998.39 998.82 999.08 999.48 1000.16 1000.48 1000.94 1001.49 1001.30 1001.57 1001.79 1001.82 1002.07 1002.36
1009.43 1008.90 1008.98 1009.09 1009.22 1009.36 1009.95 1010.19 1010.43 1010.46 1010.42 1010.31 1009.62 1009.06 1003.80 1005.28 1004.41 1004.16 1003.52 1003.10 1002.33 1001.90 1001.09 1000.28 999.53 998.67 997.92 997.40 997.15 997.21 997.30 997.82 998.05 998.53 998.98 999.65 1000.29 1000.24 1000.46 1001.13 1001.44 1001.59 1001.75 1001.79
1009.06 1008.54 1008.99 1009.06 1009.20 1009.34 1009.86 1010.47 1010.92 1011.04 1011.33 1010.84 1010.16 1009.38 1003.81 1005.37 1004.56 1003.87 1003.74 1003.87 1003.47 1002.64 1001.91 1000.81 999.49 998.39 997.54 996.99 996.63 996.86 996.59 996.76 997.17 997.79 998.28 998.72 999.36 999.86 1000.64 1001.06 1001.48 1001.57 1001.80 1001.82
1009.30 1009.11 1009.07 1009.19 1009.39 1009.61 1010.27 1011.48 1012.36 1012.39 1012.29 1011.25 1010.13 1009.21 1006.18 1005.22 1004.48 1004.66 1004.75 1004.10 1003.43 1002.89 1002.20 1001.23 1000.12 998.90 997.70 996.92 996.51 996.34 996.34 996.39 996.67 997.15 997.50 997.89 998.35 998.94 999.72 1000.34 1000.69 1001.17 1001.63 1001.82
1010.03 1009.97 1009.55 1009.49 1009.62 1010.14 1010.82 1011.87 1013.15 1013.02 1012.98 1012.15 1010.84 1008.70 1006.68 1005.48 1005.01 1004.60 1004.32 1003.84 1003.28 1002.53 1001.75 1000.98 1000.19 999.36 997.93 996.59 995.99 995.75 995.83 996.08 996.21 996.46 996.86 997.31 997.85 998.39 998.92 999.44 999.86 1000.49 1001.04 1001.49
1010.82 1010.43 1009.66 1009.36 1009.59 1010.35 1010.85 1011.73 1011.77 1012.65 1012.67 1012.32 1010.68 1008.25 1006.38 1005.17 1004.81 1004.10 1003.72 1003.34 1002.68 1002.06 1001.17 1000.41 999.61 998.74 997.01 995.58 994.81 994.76 994.89 994.95 995.42 995.84 996.33 996.92 997.39 998.02 998.41 998.91 999.42 1000.05 1000.77 1001.16
1011.50 1011.13 1010.30 1009.83 1009.84 1010.04 1010.53 1011.18 1012.13 1013.22 1013.22 1012.10 1009.95 1008.27 1006.69 1005.71 1004.97 1004.24 1003.40 1002.82 1002.07 1001.37 1000.66 999.80 999.32 998.43 996.75 995.21 994.02 993.68 993.75 994.21 994.67 995.05 995.73 996.31 997.01 997.42 997.99 998.68 999.20 999.74 1000.45 1000.81
1011.88 1012.07 1011.39 1010.84 1010.51 1010.41 1011.03 1011.73 1012.44 1013.10 1013.30 1012.18 1010.13 1007.92 1006.17 1005.54 1004.60 1004.13 1003.39 1002.55 1001.96 1001.22 1000.55 999.63 999.09 998.04 996.93 995.39 994.74 993.08 993.11 993.23 993.86 994.51 995.16 995.83 996.56 997.27 997.92 998.35 998.83 999.55 1000.04 1000.63
1012.19 1012.49 1012.36 1011.61 1010.30 1010.45 1010.85 1011.80 1012.37 1012.87 1012.62 1011.75 1010.60 1006.89 1005.37 1004.55 1004.46 1004.16 1003.32 1002.19 1001.51 1000.93 999.85 998.96 998.33 997.39 996.60 996.00 995.10 994.11 992.69 992.87 993.25 993.80 994.71 995.34 996.14 996.95 997.77 998.14 998.55 999.29 999.88 1000.57
1012.20 1012.87 1013.02 1012.04 1011.34 1010.92 1010.96 1011.41 1011.50 1011.54 1011.53 1010.65 1009.94 1006.23 1004.75 1004.51 1003.98 1002.97 1002.94 1001.77 1000.82 1000.02 998.90 997.79 997.39 996.89 996.36 995.92 995.16 994.08 993.24 992.43 993.00 993.58 994.36 995.35 996.19 996.88 997.46 997.74 998.23 998.93 999.68 1000.42
1012.00 1012.94 1013.25 1012.86 1011.86 1011.43 1010.85 1010.43 1010.27 1010.37 1010.22 1009.07 1007.83 1006.37 1004.53 1003.89 1003.30 1002.75 1002.20 1001.15 1000.08 998.91 997.82 996.04 996.16 996.06 995.51 995.24 994.84 993.95 993.34 992.33 992.86 993.57 994.39 995.29 996.06 996.75 997.20 997.72 998.27 998.83 999.55 1000.32
1012.27 1012.84 1012.91 1012.24 1011.49 1010.68 1009.75 1009.04 1008.61 1008.55 1008.23 1007.98 1006.61 1005.99 1004.49 1003.75 1003.07 1001.91 1001.53 1000.68 999.72 998.52 997.06 995.55 996.51 995.55 995.03 995.06 994.76 993.84 993.33 993.06 993.25 994.04 994.51 995.14 995.85 996.64 997.27 997.77 998.53 999.10 999.47 1000.33
1012.41 1012.56 1012.56 1011.63 1010.88 1009.85 1008.66 1007.72 1007.01 1006.77 1006.68 1006.19 1005.97 1005.11 1004.49 1003.60 1002.87 1001.94 1001.25 1000.39 999.76 998.65 997.46 997.76 996.71 996.21 995.70 994.97 995.14 994.41 993.30 993.14 993.44 994.33 994.97 995.20 995.72 996.49 997.39 998.15 998.57 999.42 1000.27 1000.86
1012.62 1012.73 1012.84 1010.96 1010.34 1009.46 1008.14 1007.09 1006.59 1006.46 1006.35 1006.35 1005.92 1005.21 1004.73 1003.89 1003.52 1002.80 1002.24 1001.55 1000.75 1000.00 999.23 998.44 997.53 997.22 996.25 995.19 995.86 995.24 992.63 992.72 993.61 994.31 994.98 995.35 996.05 997.10 997.79 998.58 999.24 999.99 1000.62 1001.33
1011.55 1012.31 1012.67 1011.35 1010.63 1009.21 1007.04 1006.66 1006.61 1006.56 1005.94 1005.58 1005.64 1005.46 1005.15 1004.62 1003.81 1002.98 1002.16 1001.96 1000.98 1000.18 999.32 998.64 998.11 997.07 997.26 996.69 995.31 994.30 993.32 992.35 993.08 994.26 994.98 995.65 996.56 997.36 998.45 999.06 999.76 1000.39 1001.04 1001.76
1010.24 1011.64 1011.99 1011.51 1010.80 1008.59 1007.04 1006.91 1006.98 1007.07 1005.83 1005.62 1005.75 1005.50 1004.92 1004.18 1003.17 1001.90 1001.73 1001.72 1001.20 1000.58 999.30 998.86 997.97 996.78 995.49 993.88 993.22 993.31 994.05 993.20 992.99 994.25 994.95 995.87 996.89 997.91 998.62 999.39 1000.09 1000.76 1001.51 1002.27
1010.73 1011.17 1011.54 1011.15 1010.26 1008.95 1007.47 1007.27 1007.23 1007.34 1006.51 1005.57 1005.79 1005.85 1005.31 1004.29 1002.80 1001.35 1001.33 1000.64 1000.06 999.99 999.46 998.49 996.74 995.85 994.81 993.37 992.90 994.81 994.48 993.15 993.48 994.11 995.10 996.27 997.05 997.93 998.83 999.58 1000.23 1000.98 1001.51 1002.45
1010.94 1011.03 1010.87 1010.30 1009.61 1008.37 1007.25 1007.34 1007.39 1007.39 1006.51 1005.82 1005.33 1005.49 1005.26 1004.59 1003.33 1001.15 1001.11 1000.13 999.91 999.28 998.86 998.30 996.75 995.84 995.11 993.93 993.64 994.85 995.23 993.59 993.27 994.16 995.24 996.29 997.08 998.10 998.91 999.71 1000.45 1001.23 1001.97 1002.69
1010.49 1010.62 1010.31 1009.63 1009.14 1007.99 1007.21 1007.61 1007.36 1006.18 1005.81 1005.70 1005.36 1005.09 1004.90 1004.19 1002.87 1001.58 1000.79 1000.38 999.50 998.67 998.68 997.17 996.30 995.12 994.74 994.07 994.19 994.67 993.55 992.78 993.59 994.39 995.10 996.18 997.28 998.10 999.01 999.85 1000.88 1001.54 1002.19 1002.95
1010.28 1010.09 1010.07 1009.41 1007.66 1006.72 1006.67 1006.61 1006.34 1006.34 1006.14 1005.62 1004.87 1004.78 1004.22 1003.53 1002.07 1001.54 1000.23 999.75 998.79 998.61 997.89 996.74 995.12 995.08 992.63 994.38 993.47 993.81 993.10 993.07 993.62 994.54 995.42 996.54 997.54 998.39 999.35 1000.20 1001.24 1001.98 1002.43 1003.04
1010.26 1009.64 1009.34 1008.69 1006.82 1006.57 1006.09 1005.90 1006.08 1006.28 1006.06 1005.50 1004.68 1003.88 1003.78 1002.76 1001.75 1000.71 999.94 998.85 997.99 997.36 997.13 995.64 994.30 993.15 993.28 993.60 992.93 992.63 992.62 993.00 993.97 995.06 996.03 996.94 997.96 999.02 999.81 1000.50 1001.34 1001.94 1002.57 1003.03
1010.23 1009.26 1008.30 1007.82 1007.05 1006.65 1006.02 1005.77 1005.59 1005.71 1005.57 1004.62 1004.04 1003.33 1002.69 1001.99 1000.81 999.98 999.24 998.29 997.49 996.02 995.46 995.43 994.60 992.85 992.74 993.16 992.84 992.20 992.77 993.54 994.62 995.55 996.64 997.53 998.31 999.44 1000.57 1001.48 1002.10 1002.14 1002.28 1002.25
1008.75 1008.19 1008.27 1007.34 1006.91 1006.75 1006.44 1005.88 1005.73 1005.01 1004.45 1003.67 1003.44 1002.53 1001.96 1001.13 1000.14 999.30 998.49 998.04 997.58 996.09 994.68 993.52 993.93 992.98 993.94 993.85 993.38 992.83 993.38 993.87 994.96 996.29 997.22 997.95 998.96 999.99 1000.89 1001.64 1002.58 1002.77 1002.61 1002.70
Wind_Speed
4 4 5 12 8 9 7 5 4 4 6 5 11 17 12 7 7 8 9 12 12 15 19 15 10 11 9 9 9 13 13 16 11 5 6 5 10 8 5 7 8 8 8 11
7 2 3 4 4 3 4 3 5 4 7 10 12 25 17 7 8 8 9 12 10 12 15 19 17 10 10 9 13 10 13 16 12 10 9 5 7 4 5 5 6 9 11 10
3 8 6 5 5 6 4 4 6 6 8 3 7 18 15 13 6 7 7 8 9 10 13 16 15 8 9 10 11 14 16 16 15 14 5 3 3 2 3 3 4 7 10 11
5 5 3 7 1 3 2 6 8 12 8 4 1 16 15 12 12 7 10 8 10 11 12 10 14 14 9 11 9 12 17 17 16 14 12 9 7 6 6 5 4 5 8 11
8 5 5 5 2 2 5 4 6 7 9 3 3 6 16 13 18 16 14 13 13 10 11 13 13 14 18 9 10 13 15 16 16 15 13 12 5 5 2 2 5 4 5 8
10 2 2 3 2 2 1 2 5 3 0 4 4 7 27 7 13 14 10 12 13 14 15 17 17 13 13 9 8 8 11 11 10 9 9 10 11 9 5 4 4 4 3 5
3 5 2 2 1 3 5 5 5 6 3 6 4 7 17 15 13 2 6 10 12 9 10 14 17 18 14 10 11 8 12 14 13 14 13 14 13 12 12 9 6 6 4 3
4 7 4 0 2 4 4 7 5 5 5 12 13 9 8 4 2 6 5 7 10 10 8 12 16 18 19 17 11 12 11 12 11 13 13 12 12 9 8 8 7 7 7 7
3 3 6 6 3 4 3 4 9 4 5 4 7 7 8 6 5 9 7 8 12 15 12 11 17 17 18 19 17 15 15 16 14 15 12 10 11 9 8 9 9 7 6 6
4 5 6 1 5 5 5 4 2 3 4 6 5 8 7 8 11 10 11 12 15 15 15 12 13 15 19 17 10 10 11 16 16 14 12 10 11 9 9 10 11 10 8 8
1 3 4 4 4 5 5 1 3 3 4 4 5 6 6 11 13 9 9 11 13 18 15 10 14 13 16 15 13 8 8 8 8 9 8 9 8 9 9 9 10 10 9 9
1 1 4 8 15 11 5 5 4 5 6 5 4 13 14 17 8 9 11 12 16 15 12 10 13 8 14 13 16 11 8 8 10 11 10 9 9 10 10 9 10 10 10 9
3 2 5 7 5 6 2 4 6 4 3 8 6 11 7 5 9 14 11 12 15 14 12 8 6 9 13 13 16 10 7 9 9 10 9 8 9 10 10 10 12 11 11 10
9 4 8 9 10 6 14 17 17 11 8 10 13 21 20 14 11 12 9 13 11 13 13 5 11 16 16 15 12 8 2 8 10 10 10 10 10 10 10 11 11 11 11 11
5 6 6 11 17 18 21 22 20 18 16 13 16 10 13 8 10 16 12 12 10 14 17 17 17 18 19 15 13 9 5 6 9 10 11 11 11 12 11 10 10 9 11 9
3 5 3 17 17 17 18 15 18 17 16 8 7 12 3 10 9 6 11 12 17 15 16 18 19 14 11 13 19 15 9 9 11 11 12 13 14 14 13 9 11 10 10 10
5 5 2 11 6 13 7 3 4 5 5 4 6 5 10 14 15 14 15 17 13 14 14 15 16 1 6 5 10 16 12 13 14 14 13 14 15 12 11 10 9 10 10 9
7 5 3 7 4 4 4 4 2 6 12 9 10 6 9 13 16 18 13 5 14 18 17 16 16 5 5 7 9 8 4 14 16 15 15 16 15 13 11 10 10 8 10 11
14 5 3 3 3 8 8 3 1 2 13 2 4 11 15 16 17 12 9 15 17 18 16 14 13 6 7 8 6 3 14 8 16 16 16 15 14 12 11 11 10 10 11 9
5 4 5 3 4 5 4 4 1 4 9 3 6 9 13 17 14 13 16 20 23 18 17 17 20 12 4 9 8 9 18 13 18 17 15 13 12 12 11 11 11 7 11 10
2 3 6 8 4 7 3 3 1 0 7 8 13 13 13 11 14 21 19 22 18 19 20 17 17 12 4 9 11 9 16 16 17 16 15 13 12 12 11 11 10 9 10 10
3 4 3 2 4 7 4 1 5 4 9 11 12 12 15 17 16 20 20 19 20 21 18 17 15 12 3 0 8 17 14 15 16 16 16 13 12 10 9 13 8 10 11 11
3 4 3 6 6 4 5 11 9 5 7 12 13 11 16 16 19 19 19 18 17 17 14 13 13 14 10 12 12 8 11 15 15 14 13 12 11 10 10 12 10 9 9 9
5 6 5 7 4 6 7 5 5 4 11 13 17 15 14 18 17 19 18 16 15 13 11 11 13 14 2 7 5 12 14 16 15 14 11 11 12 9 8 8 8 9 8 7
8 5 5 6 13 13 6 7 13 15 15 16 14 16 15 15 18 18 14 15 13 15 11 8 8 7 10 9 8 14 14 16 13 13 11 10 10 9 8 6 3 6 5 8
4 3 2 5 11 5 12 8 18 18 17 12 13 16 16 16 15 15 15 13 11 14 12 8 5 1 3 5 8 14 14 15 15 11 9 8 8 6 6 7 5 14 8 4
Wind_Direction
297 91 194 235 211 234 259 264 266 275 289 327 286 292 292 291 301 313 306 304 305 293 279 265 226 234 252 189 199 206 199 208 186 176 187 211 215 217 226 205 199 198 209 204
7 277 270 273 320 317 323 323 312 265 342 337 304 286 284 270 270 257 267 280 282 294 300 288 266 221 229 208 199 201 215 208 203 198 200 192 188 195 208 209 215 205 200 197
183 254 291 316 308 12 5 54 333 310 332 280 340 294 307 307 265 293 287 273 284 280 291 297 283 264 237 233 195 201 202 206 200 201 170 74 63 62 128 202 213 224 195 192
258 262 319 319 32 92 347 352 330 320 341 277 51 287 286 286 293 281 292 294 279 285 287 281 284 286 255 231 228 202 201 195 196 181 186 179 184 181 204 186 191 221 189 185
253 251 302 307 208 113 227 330 297 300 285 274 248 276 277 314 290 292 291 283 278 263 276 277 280 279 276 239 220 208 198 196 192 187 188 197 176 202 177 173 209 220 180 168
237 200 149 178 227 178 252 331 319 322 48 269 190 207 279 269 272 274 319 347 342 339 332 319 299 282 278 262 228 207 186 194 188 185 193 186 192 198 169 177 203 181 160 154
333 256 158 160 175 346 82 52 332 339 350 237 345 309 262 284 280 91 295 309 313 306 317 314 312 312 294 270 241 207 204 202 199 200 204 205 203 201 191 181 180 154 153 142
136 335 39 207 248 245 221 161 161 260 275 288 302 257 250 110 124 229 244 276 296 300 307 308 308 301 286 277 230 217 197 211 204 202 207 206 208 203 190 179 161 165 172 170
343 268 329 331 55 98 258 176 209 226 276 248 238 288 291 322 329 324 304 310 312 310 306 311 311 305 302 278 246 202 202 210 208 207 206 200 199 184 179 161 160 162 150 156
329 297 225 287 338 273 181 243 301 357 302 261 259 255 250 307 298 285 312 323 309 300 299 303 305 301 315 307 262 234 204 198 198 191 191 192 184 172 156 155 161 159 156 147
19 163 275 0 237 265 332 357 89 103 189 258 296 262 222 250 255 285 298 292 288 291 290 302 299 288 304 316 292 239 218 182 165 165 161 159 160 154 151 157 156 161 154 150
239 209 276 246 270 267 180 181 148 133 258 227 268 261 254 253 267 269 265 276 285 282 279 285 271 287 319 320 313 278 185 170 172 161 158 152 146 148 155 156 152 147 145 148
186 298 320 325 4 359 168 202 198 209 202 229 250 274 265 263 255 250 264 285 279 286 275 253 259 313 328 320 310 304 235 155 150 146 141 137 147 152 157 152 148 149 145 147
152 204 190 247 254 245 278 272 266 242 237 265 250 282 294 286 254 259 274 269 268 298 288 347 339 323 315 303 304 283 246 148 144 139 135 135 142 151 148 150 146 143 149 144
155 217 218 247 263 270 272 277 273 272 257 248 273 249 283 283 283 257 245 280 310 303 312 355 321 313 303 318 308 250 210 141 128 126 130 131 129 128 126 122 135 131 125 138
180 252 286 287 269 270 287 293 272 260 276 261 294 272 329 301 290 286 267 304 306 314 348 313 308 332 22 354 335 251 191 152 132 132 132 131 123 121 123 114 116 118 122 116
206 203 246 270 327 311 282 254 34 343 301 215 263 270 330 325 325 318 325 329 358 344 337 323 336 354 335 336 310 307 177 141 139 134 135 130 125 127 127 125 119 117 116 116
196 156 187 280 346 252 214 170 46 302 285 268 276 294 306 303 304 307 293 0 331 334 329 323 324 251 254 222 246 290 324 146 136 135 139 133 136 128 134 127 123 114 122 124
205 141 232 256 211 289 278 163 158 8 297 260 302 328 320 310 317 310 350 332 321 316 313 310 322 270 297 338 325 261 343 194 127 141 133 136 134 137 133 130 130 126 123 119
79 131 165 210 250 247 241 169 203 281 271 179 334 318 308 318 306 303 326 314 312 312 310 317 317 302 16 307 350 342 314 155 143 136 137 139 138 132 137 135 133 131 122 121
237 222 240 257 265 272 199 154 185 226 297 319 315 314 308 297 287 298 307 304 302 301 311 311 304 307 23 348 354 311 265 155 140 138 139 141 141 141 140 134 125 123 121 117
268 195 239 248 239 268 151 194 227 232 302 302 299 301 301 294 291 291 299 297 298 301 309 305 297 310 354 258 273 262 206 136 140 143 145 143 143 137 137 127 121 127 125 125
318 183 249 202 239 217 213 258 265 300 272 284 283 288 292 284 288 292 294 294 289 290 291 284 293 318 282 210 224 222 148 137 132 135 135 139 130 129 130 126 126 125 129 136
315 306 254 329 272 282 285 275 231 253 292 295 289 295 287 284 286 287 291 290 293 299 287 284 295 282 295 265 225 153 139 130 128 129 121 125 120 119 127 129 140 139 144 140
264 292 280 255 288 286 277 302 320 318 303 293 283 287 285 281 280 279 284 285 292 291 287 251 261 267 301 323 172 130 130 130 129 120 125 122 122 118 104 73 93 151 144 155
230 216 265 284 297 261 293 310 312 300 296 295 302 294 290 285 284 283 275 276 286 286 282 265 205 355 212 312 171 131 132 133 127 126 128 126 125 118 128 130 104 43 47 113